Theta_e
317 309 307 307 307 309 314 319 317 320 322 320 318 320 322 322 321 322 323 324 325 325 326 324 324 324 323 321 322 324 322 319 321 322 317 317 316 317 315 317 320 315 313 316
317 314 309 307 308 309 315 318 319 319 323 320 318 319 319 318 321 321 322 324 324 323 324 326 324 322 321 321 321 322 322 323 325 324 321 319 321 320 317 316 317 320 317 316
317 318 314 307 307 310 314 316 316 318 319 319 318 320 321 320 319 319 321 322 321 323 323 323 323 321 321 320 320 320 320 322 322 323 321 319 323 322 321 318 318 318 319 318
317 318 316 308 307 311 314 314 312 316 316 314 314 315 318 319 320 319 320 321 321 322 323 322 321 320 320 318 318 319 319 320 319 318 319 318 319 319 319 320 318 319 318 317
316 317 318 316 307 310 313 315 312 315 314 315 313 313 315 316 315 317 321 321 317 316 316 320 322 320 320 320 318 318 315 318 316 316 316 315 314 314 314 315 317 316 316 317
315 316 318 319 308 310 311 313 313 314 312 312 312 314 314 315 313 315 314 316 317 315 311 310 311 315 316 316 317 316 315 313 313 314 313 314 316 314 313 313 313 313 314 314
314 316 317 318 313 310 311 312 315 313 311 310 313 314 313 313 312 314 311 313 313 311 310 311 311 311 310 310 309 312 315 313 312 313 314 317 316 314 315 314 315 313 313 312
314 315 316 317 318 313 310 312 314 313 309 310 312 312 311 311 310 309 309 308 309 309 310 311 312 311 313 312 311 312 308 311 312 315 315 315 317 314 316 317 316 314 314 313
314 315 315 316 317 318 316 316 315 316 310 311 312 309 311 309 307 307 306 308 309 310 309 312 316 316 317 314 315 311 310 308 311 307 313 316 317 314 314 313 315 315 315 315
314 315 316 316 317 318 318 318 319 319 315 312 312 311 311 311 309 305 306 307 308 310 310 315 314 317 311 316 315 315 311 310 311 312 313 313 313 314 315 316 314 316 316 316
313 314 315 316 317 317 317 317 317 318 318 314 313 314 313 311 311 309 308 310 309 309 313 312 311 312 312 313 313 314 314 310 312 312 312 314 314 315 317 312 313 312 313 314
312 313 314 315 317 317 317 316 317 316 317 317 316 314 314 313 313 314 307 312 309 310 309 309 307 310 307 309 315 311 314 313 315 312 312 312 313 313 311 312 311 310 311 311
309 310 313 314 315 316 317 316 317 316 315 315 316 316 316 316 313 315 312 311 311 311 313 311 311 314 308 312 311 314 312 313 312 313 313 313 313 310 311 311 311 310 310 309
307 308 310 311 312 314 315 315 315 315 315 313 315 314 313 314 316 313 314 314 313 312 311 311 310 314 312 313 311 311 311 312 312 311 312 312 313 311 311 310 310 310 309 308
307 307 308 310 311 313 314 313 313 314 313 313 313 313 313 313 313 315 313 312 312 310 309 310 309 310 311 310 308 307 311 310 310 311 311 310 310 311 310 309 309 308 307 307
308 306 307 308 309 312 312 311 311 312 312 312 307 312 311 312 312 313 313 311 311 311 310 309 309 310 311 309 311 309 311 312 312 311 312 309 309 309 308 307 306 305 304 304
306 306 306 307 308 309 310 311 311 310 310 311 308 310 309 309 310 311 312 312 310 310 310 309 309 309 310 310 309 309 311 311 310 309 309 308 308 308 307 307 306 305 304 303
306 304 305 305 306 308 309 309 310 310 310 310 305 307 307 308 309 309 310 310 310 310 309 308 309 309 309 310 308 309 310 309 309 308 308 308 308 307 307 306 305 304 302 300
303 304 304 305 305 305 307 308 309 310 310 308 306 307 309 307 308 308 308 308 307 309 309 309 308 309 309 307 308 309 308 308 308 308 307 307 306 305 304 303 302 301 300 299
304 305 305 305 305 305 306 307 307 308 308 309 306 307 306 307 307 306 305 304 305 306 306 307 306 308 307 308 307 307 307 307 307 306 306 302 302 301 301 301 300 300 298 297
306 304 304 304 305 305 304 303 304 305 304 305 305 306 304 305 306 304 304 303 303 305 304 306 305 303 302 305 306 305 306 305 304 301 300 300 300 301 301 300 299 297 293 289
304 303 302 304 303 302 300 302 301 302 304 303 303 303 304 304 305 303 303 304 302 303 302 302 303 300 303 304 304 302 301 300 299 298 298 299 300 300 299 299 296 294 289 287
302 302 303 301 300 300 300 300 302 302 301 300 301 301 303 303 304 302 303 303 303 299 301 301 299 301 302 303 301 300 298 297 298 298 298 299 300 299 299 298 296 289 287 288
302 301 301 296 296 296 294 295 296 301 300 300 301 300 301 300 302 301 302 303 298 300 301 298 298 301 302 302 301 298 298 298 298 297 297 298 299 298 296 292 287 287 288 287
301 300 296 296 296 297 298 298 299 298 300 300 298 299 299 299 300 300 300 300 301 299 298 297 301 300 300 300 298 297 297 296 296 296 297 297 297 295 291 287 287 287 287 287
300 299 298 297 298 296 297 298 297 299 300 300 299 298 299 299 300 300 301 301 299 297 294 301 302 301 300 300 298 296 296 296 295 295 296 296 296 294 290 287 286 287 287 287
298 298 298 299 298 298 298 299 299 299 299 293 296 296 295 293 299 298 295 296 296 300 301 301 300 300 300 299 296 296 296 297 295 294 295 295 294 292 290 288 287 287 287 287
Wind_Speed
13 11 13 14 13 10 4 3 1 11 1 3 3 3 2 4 4 6 6 8 5 5 5 4 4 4 3 4 1 2 1 5 4 3 2 2 2 5 5 4 2 1 4 5
13 11 10 12 12 11 5 4 4 14 6 3 2 3 4 5 6 5 4 4 1 4 3 5 4 4 4 8 3 2 1 3 4 5 3 2 3 3 4 3 2 2 3 5
10 12 9 9 9 9 5 2 3 9 22 11 6 5 4 3 6 6 5 4 7 6 8 6 3 3 2 6 3 4 2 3 3 5 3 4 3 3 3 5 3 4 6 4
10 10 9 7 6 6 2 2 1 2 1 5 6 5 3 3 3 3 7 5 4 4 4 3 4 3 3 5 3 3 3 3 3 2 2 2 3 5 7 8 6 6 2 7
10 7 7 7 4 3 2 2 3 4 1 1 7 6 4 3 3 4 3 7 11 12 5 1 5 5 1 2 1 3 4 2 2 2 3 3 6 8 8 9 8 8 7 17
9 7 5 6 5 4 2 3 2 2 1 2 4 2 3 3 6 6 10 2 6 10 3 8 8 12 10 6 4 2 3 3 3 1 4 4 8 8 9 4 3 5 7 10
7 7 3 3 3 4 3 5 2 2 0 3 3 3 5 5 2 6 4 12 5 2 2 4 8 13 12 12 8 5 4 3 3 2 3 2 4 3 5 6 5 5 5 7
7 7 3 1 1 2 3 2 2 2 2 6 6 7 6 9 12 5 5 5 5 4 2 3 4 4 3 4 6 5 2 4 3 3 3 7 5 5 3 3 3 1 3 4
8 6 5 3 2 3 3 3 4 4 7 1 7 6 6 4 3 3 2 4 5 3 2 3 3 3 2 1 2 5 4 6 4 2 3 4 4 1 1 3 5 5 5 2
9 7 6 4 3 3 2 3 3 3 4 4 9 3 5 7 5 3 1 2 3 4 2 2 2 2 1 3 5 3 3 3 4 2 2 7 7 5 3 3 4 14 11 7
7 10 9 7 5 4 4 2 2 2 4 4 3 4 5 7 7 4 7 4 1 2 3 3 3 2 3 1 3 5 5 5 4 2 2 6 2 3 1 1 6 12 13 11
7 9 10 10 8 7 7 5 3 1 2 2 4 5 4 4 8 8 12 1 4 6 4 1 3 2 2 3 2 2 2 5 4 7 5 6 9 9 10 8 6 6 8 10
7 7 11 11 9 8 10 6 5 4 3 1 1 2 6 8 7 7 6 4 6 5 4 4 2 3 3 3 4 2 3 3 3 2 2 2 10 6 7 9 10 8 9 8
6 7 8 10 10 9 8 8 5 5 3 3 2 3 1 3 13 11 5 9 10 10 5 4 2 3 4 3 2 4 7 1 2 6 11 15 7 19 19 11 11 10 9 9
6 7 9 10 10 10 9 7 5 7 3 2 1 1 2 1 4 11 13 7 10 5 4 3 2 3 2 3 2 3 9 6 5 6 7 4 13 13 15 12 9 8 10 10
7 7 10 11 11 10 11 4 9 9 7 2 1 1 0 2 4 5 10 11 7 4 4 3 4 4 4 2 4 9 15 15 17 8 14 18 11 6 5 7 8 8 8 9
8 10 12 12 12 14 6 4 5 13 11 5 1 1 2 6 7 7 10 11 5 4 4 3 6 5 8 2 4 5 9 6 15 11 6 5 3 7 12 13 13 14 14 14
10 14 14 12 12 12 8 7 8 13 7 4 3 1 3 7 4 3 4 4 6 6 5 5 4 5 5 5 10 9 8 9 8 7 5 9 15 17 20 18 16 14 12 7
16 18 16 13 9 7 8 6 10 11 4 7 3 3 3 8 4 4 4 3 2 5 2 3 7 3 7 8 8 11 11 7 7 10 14 20 21 19 16 13 11 10 7 6
22 22 7 5 7 9 11 6 4 6 3 4 3 5 3 7 5 3 4 2 1 2 2 6 1 4 25 27 25 23 17 10 13 19 20 12 13 12 12 9 8 10 10 9
19 7 5 10 16 8 4 3 3 4 1 5 4 9 4 5 3 3 4 3 3 3 2 3 2 4 5 11 12 12 12 10 7 8 10 11 11 8 6 5 8 10 10 9
15 9 15 12 4 2 3 4 2 3 4 5 5 4 4 5 4 4 3 3 2 3 5 2 3 4 11 7 5 3 3 4 6 7 9 10 8 7 4 3 6 8 7 5
19 5 7 5 3 3 7 8 4 4 8 8 7 3 5 4 2 4 2 3 3 8 2 3 5 4 3 5 5 4 5 6 8 11 11 10 8 6 6 5 5 5 6 8
6 8 6 5 4 4 4 4 4 5 11 20 17 7 4 3 2 2 4 2 3 2 3 6 2 7 6 8 6 5 7 9 12 14 11 9 8 8 8 8 8 9 10 11
5 6 5 4 4 2 4 10 10 7 24 21 12 6 4 2 3 1 3 2 2 4 4 3 3 3 3 6 9 8 10 12 14 13 11 10 10 11 11 12 12 13 12 13
7 4 4 4 5 2 6 6 11 20 22 10 5 3 3 3 3 3 4 4 6 4 3 7 4 7 9 13 14 12 12 13 15 14 13 12 12 13 14 15 17 16 15 16
5 3 6 10 5 8 8 9 9 22 14 2 3 5 5 3 3 2 4 5 4 5 6 9 13 14 19 15 16 15 14 16 17 17 16 15 13 14 17 19 18 16 17 18
Wind_Direction
330 334 346 342 352 357 331 316 34 13 171 63 47 46 28 109 30 2 42 79 81 145 158 92 76 113 65 350 337 99 31 122 118 191 141 142 200 204 164 132 244 152 145 273
331 341 348 347 353 12 341 355 359 26 177 103 48 55 67 56 20 6 56 92 44 52 75 99 88 79 2 29 51 128 294 72 93 12 358 352 202 195 140 124 93 215 149 261
320 343 356 350 351 7 3 347 53 32 69 110 107 96 55 94 10 23 38 59 75 65 19 32 109 85 7 11 59 62 58 77 127 161 157 138 170 186 161 131 135 218 218 232
316 331 358 345 353 358 21 349 150 113 355 1 82 86 96 85 64 33 20 35 64 130 115 61 98 98 103 18 10 31 77 95 86 69 68 79 184 215 214 202 192 191 117 243
300 317 344 352 6 347 34 112 130 102 53 354 68 32 25 107 88 25 31 85 66 66 81 40 135 136 130 172 341 64 4 133 83 349 330 301 267 253 233 239 240 255 269 280
281 310 318 352 9 355 72 101 79 133 296 24 97 181 149 89 130 39 54 45 90 62 53 53 72 83 77 98 124 100 79 99 75 97 18 7 297 251 224 209 199 207 226 255
253 281 308 337 33 39 96 103 63 92 10 77 117 97 88 86 51 122 35 57 90 168 17 81 73 67 63 61 39 62 111 95 86 158 42 277 240 303 194 173 228 239 271 290
227 253 263 281 64 90 104 108 110 70 100 124 81 92 110 93 72 62 77 46 99 136 64 74 59 5 50 42 39 22 59 118 121 135 212 296 341 5 66 96 290 9 203 6
220 218 243 193 199 141 130 79 81 91 124 235 137 120 134 134 112 49 66 78 115 103 86 76 121 187 177 173 31 5 54 79 107 78 144 238 247 192 159 139 325 4 28 21
212 211 216 221 193 199 156 152 95 87 103 141 145 139 165 137 108 104 115 113 85 46 87 95 138 194 157 155 161 168 69 50 165 189 227 287 251 217 21 96 264 330 314 316
206 208 210 207 213 200 186 165 135 118 89 135 170 138 152 147 157 145 161 103 335 59 89 120 188 133 207 78 175 171 162 141 188 136 184 274 263 49 20 234 21 37 26 337
212 208 209 206 209 209 202 191 169 125 104 132 204 193 151 167 172 141 163 144 144 168 99 86 105 125 82 164 225 111 213 181 178 186 210 232 58 113 103 49 62 37 6 354
214 211 209 205 202 209 211 194 166 171 159 256 236 192 216 215 191 180 150 175 147 144 119 137 122 123 126 192 243 195 312 283 216 351 287 227 332 121 13 0 5 357 342 325
196 203 195 196 202 200 190 181 168 152 136 115 82 97 138 233 208 202 176 163 154 149 136 97 119 136 192 221 252 171 210 208 211 271 287 299 287 333 327 340 340 326 307 310
185 184 178 178 192 189 185 180 165 174 165 127 163 225 211 219 199 201 208 171 158 138 102 88 146 128 124 293 5 236 201 207 174 230 212 261 307 315 310 297 292 298 307 302
189 176 168 173 183 173 166 182 220 202 183 116 53 74 219 250 207 163 183 184 164 132 122 135 114 144 141 223 255 245 212 225 235 249 277 296 297 287 271 299 322 320 295 286
180 171 157 157 167 179 176 199 191 188 180 163 65 123 141 140 133 142 151 172 154 146 143 122 137 180 184 248 243 241 225 217 292 280 248 243 291 310 316 314 311 312 311 312
165 154 152 160 170 175 152 111 164 162 161 175 125 190 134 154 121 114 123 123 134 161 161 132 148 142 205 251 235 239 269 268 250 242 299 313 310 305 301 295 293 296 300 290
142 142 146 148 167 174 194 158 156 163 174 167 147 158 169 159 119 122 109 127 115 158 170 173 161 175 226 233 220 240 259 249 249 282 298 303 296 289 287 286 292 296 286 272
142 143 141 166 172 161 162 155 188 203 230 200 181 167 153 161 143 104 105 71 106 143 214 138 278 258 261 258 266 278 287 280 276 289 297 296 298 303 301 286 278 257 243 237
160 149 138 148 147 139 147 131 168 193 273 206 193 189 137 167 136 141 154 153 150 173 203 178 217 263 265 300 286 280 277 276 276 281 293 299 303 308 301 255 241 224 219 225
160 145 127 136 165 119 135 173 174 214 212 166 149 138 118 130 139 108 149 135 111 190 132 139 237 253 264 257 267 251 258 285 295 301 308 313 311 316 319 236 209 212 220 251
140 133 141 152 150 163 188 184 199 198 175 160 144 116 123 120 117 96 133 143 170 122 173 226 231 255 255 201 228 264 291 301 303 304 306 304 299 295 285 275 247 227 250 274
140 157 153 179 190 220 193 192 175 147 154 146 137 110 124 130 99 140 122 111 114 172 221 234 247 274 268 238 256 264 290 291 295 295 293 291 284 275 267 248 234 245 262 278
155 151 193 187 188 125 129 125 123 122 147 140 117 103 114 68 108 63 115 120 210 216 230 229 246 5 334 270 262 279 287 290 288 287 281 276 269 262 254 244 248 259 271 282
160 148 125 127 137 131 146 142 137 147 154 130 105 105 112 106 121 137 198 165 219 240 214 228 253 294 307 289 275 280 281 287 288 279 273 266 263 261 258 253 258 267 277 284
157 153 171 158 144 173 165 168 164 164 150 155 149 123 183 102 136 222 188 208 224 193 219 298 308 302 317 304 275 274 275 286 283 275 265 262 262 257 255 257 267 271 276 283